Temperature
20 22 22 23 23 20 21 20 20 21 20 22 21 21 23 24 24 24 24 24 25 25 24 24 23 23 22 22 21 21 20 20 20 19 19 18 18 18 18 18 17 17 17 17
21 22 23 24 23 22 22 21 21 22 21 21 21 22 22 23 23 23 24 25 25 25 24 24 24 23 22 22 21 21 20 20 20 19 19 18 18 18 18 17 17 17 17 17
19 21 22 22 22 22 23 22 22 22 22 21 20 20 22 23 23 24 25 25 25 25 25 24 24 23 23 22 21 21 21 20 20 19 19 18 18 18 17 17 17 17 17 16
17 20 21 21 21 22 22 22 21 21 21 20 20 22 23 23 24 24 25 25 25 25 25 24 24 23 23 22 21 21 21 20 19 19 19 18 18 17 17 17 17 17 16 16
16 18 20 22 22 21 22 22 20 20 20 20 20 21 21 23 23 24 24 25 25 25 25 24 24 23 23 22 21 21 20 20 19 19 18 18 18 17 17 17 16 16 16 16
15 19 19 21 21 21 21 21 20 19 19 19 19 19 20 22 23 23 23 24 24 24 24 24 23 22 22 21 21 21 20 19 19 18 18 18 18 17 17 17 16 16 16 16
16 18 18 19 19 20 21 20 20 19 19 19 19 19 21 21 22 22 23 23 23 23 23 23 22 22 21 21 21 20 20 19 18 18 18 17 17 17 17 16 16 16 16 15
14 17 18 18 18 19 18 19 19 19 19 19 19 20 20 20 21 21 21 22 22 22 22 22 21 21 21 20 20 19 19 18 18 18 17 17 17 16 16 16 15 15 15 15
14 15 15 15 16 17 18 18 19 19 20 20 19 19 19 19 19 20 20 20 21 21 21 21 20 20 20 19 19 18 18 18 17 17 17 17 16 16 15 15 15 15 15 15
13 14 15 15 16 17 18 18 19 19 19 20 19 19 19 19 19 19 20 20 20 20 20 20 19 19 19 18 18 17 17 17 17 16 16 16 16 15 15 15 15 14 14 14
13 14 15 16 16 17 17 18 19 19 19 19 19 18 18 18 18 18 18 18 19 19 18 18 18 18 17 17 17 17 16 16 16 16 15 15 15 14 14 14 14 14 14 13
13 14 13 15 16 16 17 17 18 18 18 18 18 18 18 18 18 18 17 17 17 17 17 17 17 17 16 16 16 16 16 16 15 15 15 14 14 14 14 14 13 13 13 13
14 15 15 15 16 16 16 17 17 17 17 17 17 17 17 17 17 17 17 17 17 17 16 16 16 16 16 16 15 15 15 14 14 14 14 14 13 13 13 13 13 13 12 12
15 15 15 15 15 16 16 16 16 16 17 17 17 17 17 17 17 17 16 16 16 16 16 15 15 15 15 15 15 15 14 14 14 13 13 13 13 13 12 13 12 12 12 11
15 15 15 15 15 15 15 15 16 16 16 16 16 16 16 16 16 16 16 16 16 15 15 15 15 15 14 14 14 14 13 13 13 13 13 12 12 12 12 12 11 11 11 11
14 15 15 15 15 15 15 15 15 15 15 15 15 15 15 15 15 15 15 15 15 15 14 14 14 14 13 13 13 13 12 12 12 12 12 12 11 11 11 11 11 10 10 10
14 14 14 14 14 14 15 15 15 15 15 15 15 15 15 15 15 15 14 14 14 13 13 13 13 13 12 12 12 12 12 12 11 11 11 11 11 10 10 10 10 10 10 10
13 13 14 14 14 14 14 14 14 14 14 14 14 14 14 14 14 14 13 13 13 13 12 12 12 12 12 12 12 11 11 11 11 11 11 10 10 10 10 10 9 9 9 9
13 13 13 13 13 14 14 14 14 14 14 14 14 14 14 13 13 13 13 13 13 12 12 12 11 11 11 11 11 11 11 11 10 10 10 10 10 10 10 9 9 9 9 9
12 12 12 13 13 13 13 13 13 13 13 13 13 13 13 13 12 12 12 12 12 12 11 11 11 11 11 11 11 10 10 10 10 10 10 10 9 9 9 9 9 9 8 8
11 11 12 12 12 12 12 13 13 13 13 13 13 13 12 12 12 12 12 12 11 11 11 11 11 11 11 10 10 10 10 10 9 9 9 9 9 9 9 9 8 8 8 8
11 11 11 11 11 12 12 12 12 12 12 12 12 12 12 11 11 11 11 11 11 11 11 10 10 10 10 10 10 10 10 9 9 9 9 9 9 9 8 8 8 8 8 8
10 10 10 11 11 11 11 11 11 11 11 11 11 11 11 11 11 11 11 11 10 10 10 10 10 10 10 10 10 9 9 9 9 9 9 9 9 8 8 8 8 8 8 8
10 10 10 10 10 10 11 11 11 11 11 11 11 11 11 10 10 10 10 10 10 10 10 9 9 9 9 9 9 9 9 9 9 9 8 8 8 8 8 8 8 7 7 7
9 10 10 10 10 10 10 10 10 10 10 10 10 10 10 10 10 10 10 10 9 9 9 9 9 9 9 9 9 9 8 8 8 8 8 8 8 8 7 7 7 7 7 7
9 9 9 9 10 10 10 10 10 10 10 10 9 9 9 9 9 9 9 9 9 9 9 9 9 9 8 8 8 8 8 8 8 8 7 7 7 7 7 7 7 6 6 6
9 9 9 9 9 9 10 10 9 9 9 9 9 9 9 9 9 9 9 9 8 8 8 8 8 8 8 8 8 8 7 7 7 7 7 7 6 6 6 6 6 6 6 6
Wind_Speed
7 6 6 6 8 9 8 10 10 10 10 12 10 9 8 6 6 7 8 8 9 9 8 7 7 7 7 7 7 7 7 7 6 5 4 4 3 3 2 2 2 2 2 1
3 4 6 4 7 9 7 7 7 5 9 9 6 4 4 6 8 9 10 10 10 9 9 9 9 8 7 7 7 6 7 6 5 4 4 3 3 2 2 1 1 1 1 1
4 2 4 5 8 8 6 5 7 8 8 4 3 5 7 7 9 11 11 10 10 10 10 10 10 9 9 7 6 6 6 5 4 4 3 3 3 3 2 2 1 1 1 1
4 5 7 10 3 4 5 4 5 5 5 4 6 5 3 4 7 8 8 8 8 8 8 7 7 7 7 6 7 6 6 5 4 4 3 2 2 2 1 1 1 1 1 0
5 6 4 5 1 3 4 3 3 4 4 2 1 3 3 2 4 6 6 6 6 6 6 6 6 6 7 6 6 5 5 5 4 4 4 3 3 2 2 2 2 1 1 1
5 5 7 6 3 3 3 2 3 2 2 1 4 1 4 3 1 2 3 3 4 5 6 6 5 6 7 6 5 4 4 4 3 4 4 4 4 2 1 2 2 1 1 0
5 4 5 5 7 1 5 6 3 1 2 3 4 4 2 2 3 3 4 5 5 7 6 4 5 7 6 5 4 3 2 2 3 3 3 3 3 2 2 2 1 1 1 0
5 4 6 5 4 2 4 3 1 1 1 3 3 2 3 4 5 5 6 6 6 7 6 5 5 7 6 3 2 3 4 3 3 3 3 3 3 2 2 2 2 1 1 1
5 5 3 3 3 4 2 2 1 1 1 4 5 4 5 5 6 6 6 5 5 7 7 6 4 4 5 2 3 3 4 3 2 3 3 3 3 2 1 2 2 1 2 2
0 2 4 4 4 5 3 2 1 1 2 4 5 5 6 6 5 5 5 4 5 7 7 5 4 4 3 3 4 4 3 2 2 3 2 2 2 2 2 1 1 2 2 2
0 3 4 5 6 6 5 5 5 5 4 4 6 6 5 5 5 5 5 5 5 6 5 4 4 4 4 4 4 4 3 3 2 2 2 2 2 2 1 1 1 2 2 2
3 4 2 4 5 5 4 5 4 5 5 4 5 6 5 5 5 5 5 5 6 6 5 4 4 4 4 4 4 4 2 2 1 1 2 2 2 2 4 3 3 2 1 1
4 3 3 3 3 3 3 3 4 4 4 4 4 5 5 4 4 5 4 5 5 4 4 3 3 3 3 3 3 3 2 2 2 2 2 2 2 2 1 2 4 5 3 2
2 1 1 2 2 3 3 3 4 4 4 4 4 4 5 4 4 5 4 4 5 4 4 2 2 2 2 2 3 3 2 2 2 2 2 2 2 2 2 1 0 1 3 3
2 2 3 2 1 2 2 2 3 3 3 2 2 4 4 4 4 4 3 4 5 4 3 2 3 2 2 2 3 3 2 1 2 1 2 2 2 1 1 1 1 1 1 2
2 1 1 0 0 1 1 0 1 1 0 1 0 1 2 3 3 3 3 4 4 3 1 1 1 1 2 2 3 2 2 3 3 2 2 2 2 2 1 1 1 1 1 1
2 2 2 2 2 2 2 3 3 3 2 1 2 1 2 3 3 2 2 2 3 2 1 1 0 1 2 2 3 2 2 2 4 3 2 2 2 2 1 1 1 1 1 1
4 4 4 4 4 3 3 3 2 2 3 4 3 4 4 4 4 3 2 3 3 2 1 0 1 1 2 2 3 2 2 2 2 2 2 2 1 1 1 1 0 1 1 1
2 3 3 4 3 4 4 3 3 3 3 3 4 5 4 4 3 3 3 3 3 2 0 0 2 2 2 2 3 2 3 2 2 2 2 2 2 2 1 1 0 1 1 1
3 3 3 4 3 2 2 2 2 2 2 3 4 4 4 4 4 4 3 2 2 2 2 1 2 2 1 2 3 2 3 3 2 2 2 2 2 1 1 1 1 1 1 1
4 3 3 3 3 2 2 2 2 2 2 3 4 5 5 4 4 5 4 2 1 1 2 3 2 2 2 3 4 3 3 3 2 2 1 1 1 1 1 1 1 1 1 2
4 3 3 2 2 2 2 1 2 2 1 2 3 4 4 4 4 3 2 2 2 3 3 2 2 3 4 5 3 3 3 3 2 2 1 1 1 0 1 1 1 1 2 2
3 3 3 2 1 1 0 1 1 2 2 2 3 4 5 4 4 4 2 1 2 4 4 2 3 5 6 4 3 3 3 2 2 2 1 1 1 1 1 1 1 1 2 2
3 3 1 1 0 1 2 2 2 2 2 2 2 4 5 4 3 2 2 4 5 5 4 4 6 7 6 4 4 4 3 3 3 2 2 2 2 2 1 1 1 1 2 2
2 2 1 1 1 1 1 2 3 3 3 3 4 4 3 3 4 3 4 5 6 6 4 5 7 7 5 4 4 4 4 4 4 3 3 2 2 2 2 2 2 2 2 2
2 1 2 1 1 1 2 2 3 3 3 4 3 4 4 4 5 5 5 6 6 6 5 4 4 5 4 4 4 4 4 4 4 4 4 3 3 3 3 3 3 3 3 3
2 2 2 3 3 2 2 3 3 3 3 4 4 3 4 4 5 5 6 5 5 5 4 4 4 4 4 4 4 4 4 4 4 4 4 3 3 3 3 3 3 3 3 3
Wind_Direction
216 206 178 187 183 173 175 178 181 220 225 249 247 238 236 218 189 181 185 187 187 187 186 184 181 183 184 185 183 180 180 190 203 204 201 204 209 212 209 210 223 227 237 252
224 207 193 198 198 186 191 180 200 219 249 250 254 244 237 214 192 193 199 199 193 187 182 184 185 184 182 183 180 174 181 196 199 191 189 194 197 189 182 192 211 201 222 230
215 204 128 224 211 188 187 189 176 203 238 265 264 236 224 214 201 202 201 195 190 189 188 188 187 181 182 181 169 167 174 180 184 181 188 194 184 172 186 192 185 204 223 213
148 119 194 235 235 179 171 197 199 214 246 241 241 249 238 208 202 206 196 190 191 189 185 184 176 171 165 158 161 168 173 178 176 171 179 175 166 179 198 195 191 213 227 220
136 169 237 291 223 157 163 227 220 227 261 291 358 49 342 273 207 201 195 186 184 179 167 154 154 154 147 151 157 168 180 186 185 180 177 174 185 195 197 187 195 191 162 125
129 149 206 231 296 317 125 251 289 240 247 187 105 101 277 315 240 165 142 143 136 127 122 129 135 134 137 150 157 178 194 196 181 175 180 184 189 187 188 186 192 180 163 182
144 175 243 268 302 351 157 232 281 240 227 182 178 206 255 43 63 82 92 94 102 105 109 116 126 129 133 142 168 179 161 159 155 158 169 171 163 162 158 156 162 181 196 255
138 162 237 327 0 133 221 262 284 246 200 162 137 86 69 71 74 76 78 77 88 97 94 93 115 131 133 151 171 133 132 140 156 158 157 152 148 148 148 159 173 209 243 281
180 201 259 311 294 294 266 262 276 182 147 132 113 96 83 75 73 74 77 79 85 94 88 78 82 114 126 136 121 120 117 124 140 135 133 137 145 159 167 177 192 219 241 265
94 305 322 341 348 353 357 341 328 113 125 121 117 116 105 93 78 68 69 76 87 94 96 88 77 78 100 109 104 108 113 107 109 124 125 118 122 150 171 187 210 234 254 266
53 301 342 355 358 351 359 21 38 51 72 102 112 109 108 99 88 75 64 57 72 81 83 81 81 79 74 85 102 109 111 106 97 107 130 118 102 89 152 158 202 216 246 249
210 236 213 276 313 341 3 17 29 52 58 72 101 114 110 101 92 88 81 72 71 73 71 64 73 73 64 69 93 104 101 104 114 121 118 124 127 86 56 66 65 81 88 171
214 225 217 262 324 355 10 10 27 59 85 92 90 106 113 110 104 99 93 86 81 77 74 61 69 69 58 66 91 110 129 135 116 113 118 133 155 164 153 53 59 56 53 62
232 191 261 293 308 348 13 18 40 55 69 95 109 113 117 115 116 113 110 102 94 85 78 73 66 50 49 86 99 104 108 108 112 136 151 165 184 187 176 160 95 14 24 30
289 234 216 243 334 14 14 37 54 48 44 50 95 125 133 135 139 137 123 106 98 91 81 66 53 15 20 86 105 104 101 97 111 119 121 128 131 128 125 118 99 42 19 16
275 285 233 199 279 302 323 20 139 217 256 317 309 152 148 147 138 122 113 111 114 116 106 92 50 347 30 77 92 91 92 101 108 105 101 99 101 104 101 97 81 45 16 1
190 225 239 245 257 260 250 242 226 216 209 213 225 192 144 135 132 126 101 93 113 125 139 150 136 46 80 91 99 100 97 98 99 98 98 102 107 111 111 108 86 38 350 355
234 230 223 216 220 241 252 252 241 216 206 214 199 172 171 174 177 170 146 114 103 81 52 109 136 108 101 107 113 112 112 107 103 103 98 97 103 106 106 106 72 17 352 7
255 247 251 244 234 226 233 244 246 237 222 201 185 184 187 185 175 163 148 132 132 138 251 125 117 99 96 107 109 108 107 102 97 91 92 94 87 76 78 71 22 353 355 1
317 288 266 258 250 229 239 256 249 241 227 193 176 169 174 176 168 160 147 147 184 194 181 148 117 96 96 115 112 110 111 107 100 93 87 84 81 73 65 43 349 313 310 307
321 309 292 280 276 273 256 246 223 223 217 186 181 185 184 175 164 158 152 165 229 153 137 128 114 102 93 107 107 107 108 105 102 101 100 97 88 65 40 15 351 333 323 318
316 316 310 301 278 277 279 238 201 183 164 165 164 158 152 154 151 141 142 174 172 139 122 108 104 101 99 101 99 102 105 107 105 100 97 96 95 62 12 4 353 345 340 335
305 304 299 291 272 277 3 100 151 152 159 163 160 157 153 150 149 144 143 151 133 126 114 107 108 102 99 93 89 89 90 95 98 98 91 80 69 49 29 23 15 3 352 345
316 317 311 320 78 80 64 48 71 92 105 118 138 146 141 134 115 102 118 123 121 120 107 103 100 95 91 84 78 74 74 74 78 81 77 71 66 55 39 29 20 6 359 354
340 344 12 50 95 111 104 89 80 80 86 82 80 89 102 115 123 121 109 111 115 111 98 89 90 92 90 85 80 75 71 69 71 74 73 69 63 61 50 37 26 19 11 358
343 4 24 46 75 107 106 102 97 94 100 97 84 83 89 90 100 105 106 107 102 95 89 84 86 87 87 87 85 83 78 71 65 61 61 61 52 46 40 32 27 20 14 11
19 40 49 49 46 60 85 96 100 95 99 107 96 83 90 95 99 104 105 105 103 97 91 87 88 89 89 89 86 82 78 73 68 65 62 58 50 40 32 33 32 30 27 25
Height
1499 1496 1497 1497 1501 1507 1510 1515 1524 1518 1516 1502 1494 1492 1491 1492 1495 1498 1500 1503 1506 1509 1512 1515 1518 1521 1523 1525 1527 1528 1529 1530 1531 1532 1533 1533 1534 1534 1534 1534 1534 1534 1534 1534
1497 1494 1494 1495 1495 1499 1501 1504 1507 1506 1505 1491 1489 1490 1490 1491 1492 1494 1497 1500 1503 1506 1510 1513 1515 1518 1521 1523 1524 1526 1527 1528 1530 1531 1531 1531 1532 1532 1532 1532 1532 1532 1532 1532
1507 1497 1497 1505 1495 1495 1495 1494 1497 1502 1495 1488 1488 1486 1486 1487 1489 1490 1492 1496 1500 1503 1506 1509 1512 1515 1517 1520 1522 1524 1525 1526 1528 1529 1529 1530 1530 1530 1530 1530 1530 1530 1530 1530
1509 1506 1517 1499 1485 1485 1488 1489 1489 1489 1487 1486 1485 1483 1484 1485 1486 1488 1490 1493 1496 1500 1504 1507 1510 1513 1515 1518 1520 1521 1523 1524 1526 1527 1527 1527 1528 1528 1528 1528 1528 1528 1528 1528
1513 1513 1506 1492 1484 1485 1489 1490 1486 1486 1484 1484 1483 1483 1483 1483 1484 1486 1488 1491 1494 1498 1501 1505 1508 1510 1513 1515 1517 1519 1520 1521 1523 1524 1524 1525 1525 1525 1526 1526 1526 1526 1526 1525
1510 1511 1513 1495 1483 1482 1485 1493 1485 1484 1483 1483 1483 1489 1485 1483 1483 1484 1486 1489 1492 1495 1499 1502 1505 1508 1510 1512 1514 1516 1518 1519 1520 1521 1522 1521 1522 1522 1523 1523 1523 1523 1523 1523
1506 1506 1501 1488 1483 1482 1497 1494 1484 1483 1482 1482 1482 1484 1483 1482 1483 1484 1486 1488 1491 1494 1496 1500 1503 1505 1507 1509 1511 1514 1515 1517 1517 1518 1519 1519 1520 1520 1520 1520 1521 1520 1520 1519
1506 1506 1503 1486 1484 1488 1488 1483 1482 1481 1481 1481 1481 1482 1482 1482 1483 1484 1486 1488 1490 1492 1494 1497 1500 1502 1504 1507 1509 1511 1512 1513 1514 1514 1515 1516 1517 1517 1517 1517 1517 1517 1517 1516
1498 1499 1492 1488 1487 1486 1484 1483 1482 1481 1481 1481 1481 1482 1483 1484 1484 1485 1487 1488 1490 1491 1493 1496 1498 1501 1502 1504 1506 1508 1508 1509 1509 1510 1511 1511 1512 1514 1515 1515 1514 1514 1514 1513
1494 1491 1489 1488 1486 1485 1484 1483 1482 1481 1482 1482 1482 1483 1484 1485 1486 1487 1488 1489 1490 1492 1493 1495 1497 1499 1501 1503 1504 1506 1506 1506 1507 1507 1508 1509 1509 1510 1511 1511 1511 1511 1510 1510
1494 1491 1488 1487 1487 1486 1485 1484 1483 1482 1482 1483 1483 1484 1485 1486 1487 1488 1489 1490 1491 1492 1494 1495 1496 1498 1499 1500 1501 1503 1503 1503 1504 1505 1506 1507 1507 1507 1507 1508 1508 1507 1507 1508
1494 1491 1491 1489 1488 1487 1486 1484 1484 1483 1483 1484 1485 1485 1486 1487 1488 1489 1490 1491 1492 1493 1495 1496 1497 1497 1498 1499 1500 1501 1502 1502 1502 1504 1504 1504 1505 1504 1504 1505 1504 1504 1504 1504
1489 1489 1489 1489 1488 1487 1486 1486 1485 1485 1485 1485 1486 1486 1487 1488 1489 1490 1491 1492 1492 1493 1495 1496 1497 1497 1497 1498 1499 1499 1500 1501 1501 1501 1502 1502 1502 1502 1501 1502 1502 1501 1501 1501
1488 1488 1488 1488 1487 1487 1487 1487 1486 1486 1486 1486 1486 1487 1487 1488 1488 1489 1490 1491 1492 1493 1494 1496 1496 1496 1496 1496 1497 1497 1499 1499 1498 1498 1499 1500 1500 1500 1499 1498 1498 1498 1498 1498
1487 1487 1487 1487 1487 1487 1487 1487 1487 1487 1487 1486 1486 1486 1487 1487 1488 1488 1489 1490 1490 1492 1494 1494 1495 1495 1495 1495 1495 1496 1496 1496 1496 1496 1496 1497 1497 1497 1497 1496 1496 1496 1496 1496
1485 1486 1486 1486 1486 1486 1486 1486 1486 1486 1487 1487 1487 1486 1487 1487 1488 1488 1488 1488 1490 1491 1492 1493 1493 1494 1494 1494 1494 1494 1495 1495 1494 1494 1494 1495 1495 1495 1495 1495 1494 1494 1494 1493
1483 1484 1484 1485 1485 1485 1485 1485 1485 1485 1485 1485 1486 1486 1487 1487 1487 1488 1488 1488 1489 1491 1492 1492 1492 1492 1493 1493 1493 1493 1493 1493 1493 1493 1493 1493 1494 1494 1494 1493 1493 1493 1493 1492
1481 1482 1482 1483 1483 1483 1483 1483 1482 1482 1482 1484 1485 1485 1486 1486 1486 1486 1487 1488 1489 1489 1490 1491 1491 1491 1492 1492 1492 1492 1492 1492 1492 1492 1492 1492 1493 1493 1493 1492 1492 1492 1492 1491
1479 1479 1480 1480 1480 1480 1480 1480 1480 1480 1480 1482 1482 1483 1484 1485 1486 1486 1487 1487 1487 1488 1489 1490 1490 1490 1490 1491 1491 1491 1491 1491 1491 1491 1491 1492 1492 1492 1492 1491 1491 1491 1491 1491
1477 1477 1477 1477 1477 1477 1477 1477 1477 1478 1478 1479 1480 1481 1482 1483 1484 1485 1486 1486 1487 1487 1488 1489 1489 1489 1489 1490 1490 1490 1491 1491 1491 1491 1491 1491 1491 1491 1491 1491 1491 1491 1490 1490
1474 1474 1473 1473 1473 1474 1474 1475 1475 1475 1476 1477 1478 1479 1480 1481 1483 1484 1484 1485 1486 1487 1487 1488 1488 1489 1489 1489 1490 1490 1490 1491 1491 1491 1491 1491 1491 1491 1491 1491 1491 1490 1490 1490
1472 1471 1471 1471 1471 1471 1471 1472 1472 1473 1473 1474 1475 1477 1478 1480 1481 1482 1483 1485 1485 1486 1487 1487 1488 1489 1489 1489 1490 1490 1490 1490 1491 1491 1491 1491 1491 1491 1491 1491 1490 1490 1490 1489
1470 1469 1469 1469 1469 1469 1469 1469 1470 1470 1471 1472 1474 1475 1476 1478 1479 1481 1482 1484 1485 1486 1487 1488 1488 1489 1489 1490 1490 1490 1490 1490 1491 1491 1491 1491 1491 1491 1490 1490 1490 1490 1489 1488
1469 1468 1468 1468 1468 1468 1468 1468 1469 1470 1471 1472 1473 1474 1476 1477 1479 1480 1482 1483 1484 1486 1487 1488 1489 1489 1490 1490 1490 1490 1490 1490 1491 1491 1491 1491 1491 1490 1490 1489 1489 1488 1488 1487
1468 1468 1467 1467 1467 1467 1468 1468 1469 1470 1471 1472 1473 1474 1475 1477 1479 1480 1481 1483 1485 1486 1487 1489 1490 1490 1490 1491 1491 1491 1491 1491 1491 1491 1491 1491 1490 1490 1490 1489 1488 1488 1487 1486
1468 1468 1467 1467 1467 1468 1468 1469 1469 1470 1471 1472 1474 1475 1476 1478 1479 1481 1482 1484 1485 1487 1488 1489 1490 1491 1491 1492 1492 1492 1491 1491 1491 1491 1491 1490 1490 1489 1489 1488 1487 1486 1485 1484
1469 1469 1468 1469 1469 1469 1469 1470 1471 1472 1473 1474 1475 1477 1478 1480 1481 1483 1484 1485 1487 1488 1490 1491 1492 1492 1492 1493 1493 1493 1492 1492 1492 1492 1491 1490 1490 1489 1488 1487 1486 1485 1484 1483